Volver al catálogo

GORIZONT 23

ActivoComunicacionesGEO
NORAD 21533·PAYLOAD·🇷🇺 Russia

Lanzado Jul 1, 1991 desde Baikonur Cosmodrome

Loading…

TLE

ActualizadoSource: Space-Track

Época: Sep 14, 2026, 15:23 UTC

1 21533U 91046A   26257.64131373 -.00000042  00000-0  00000-0 0  9991
2 21533  13.6746 340.8532 0007592 323.2934 189.0789  0.98907193 47578

Sigue GORIZONT 23 en tiempo real con AllMySat

Download on the App Store